Regional Weather Roundup
Issued by NWS

Home | Current Version | Previous Version | Text Only | Print | Product List | Glossary Off
Versions: 1 2 3 4 5 6 7 8 9 10 11 12 13 14 15 16 17 18 19 20 21 22 23 24 25 26 27 28 29 30 31 32 33 34 35 36 37 38 39 40 41 42 43 44 45 46 47 48 49 50

000
ASUS43 KOAX 292210
RWRNE

WEATHER ROUNDUP FOR NEBRASKA
NATIONAL WEATHER SERVICE OMAHA NE
500 PM CDT MON SEP 29 2014

NOTES: SATELLITE DATA IS BEING USED TO AUGMENT CLOUD COVER ABOVE
       12000 FEET.
       "FAIR" INDICATES FEW OR NO CLOUDS BELOW 12,000 FEET WITH NO
       SIGNIFICANT WEATHER AND/OR OBSTRUCTIONS TO VISIBILITY.

  * THESE STATIONS DO NOT REPORT WEATHER SUCH AS RAIN...SNOW OR FOG.

NEZ001>004-019>022-054>056-292300-
NEBRASKA PANHANDLE

CITY           SKY/WX    TMP DP  RH WIND       PRES   REMARKS
SCOTTSBLUFF    MOSUNNY   66  56  70 E8        29.88F
ALLIANCE       CLOUDY    64  59  83 NE7       29.88F
CHADRON        CLOUDY    53  53 100 N8        29.93F
KIMBALL        MOSUNNY   65  56  74 NE9       29.87F
SIDNEY         MOSUNNY   72  56  57 NE10      29.84F
$$

NEZ057>060-069>072-079>082-292300-
SOUTHWEST NEBRASKA

CITY           SKY/WX    TMP DP  RH WIND       PRES   REMARKS
NORTH PLATTE   PTSUNNY   80  51  36 SE17G26   29.86F
IMPERIAL       MOSUNNY   81  52  36 SE30G39   29.81F
LEXINGTON      MOSUNNY   81  53  37 SE20G26   29.90F
MCCOOK         CLOUDY    81  52  36 SE21G29   29.86F
OGALLALA       PTSUNNY   76  60  56 SE15G24   29.81F
$$

NEZ005>010-023>029-035>040-094-292300-
NORTH CENTRAL NEBRASKA

CITY           SKY/WX    TMP DP  RH WIND       PRES   REMARKS
VALENTINE      CLOUDY    69  58  67 NE13      29.92F
AINSWORTH      CLOUDY    73  59  62 E9        29.91F
BROKEN BOW     MOSUNNY   81  53  37 S20G28    29.91F
O`NEILL        MOSUNNY   81  55  40 SE10      29.93F
ORD            MOSUNNY   79  53  40 SE12G21   29.91F
THEDFORD       CLOUDY    79  53  40 SE25      29.90F
$$

NEZ041-046>049-061>064-073>077-083>087-292300-
SOUTH CENTRAL NEBRASKA

CITY           SKY/WX    TMP DP  RH WIND       PRES   REMARKS
GRAND ISLAND   SUNNY     82  52  35 S13       29.94F
AURORA         MOSUNNY   83  48  29 S10G16    29.94F
HASTINGS       MOSUNNY   82  47  29 S14G22    29.93F
HEBRON         SUNNY     84  45  25 SE8       29.94F
HOLDREGE       PTSUNNY   81  52  36 SE17      29.91F
KEARNEY *      MOSUNNY   81  54  39 E16G22    29.93F
YORK           SUNNY     81  55  41 SE9G17    29.95F
$$

NEZ011>018-030>034-042>045-292300-
NORTHEAST NEBRASKA

CITY           SKY/WX    TMP DP  RH WIND       PRES   REMARKS
NORFOLK        MOSUNNY   82  55  39 SE10      29.95F
ALBION         SUNNY     80  52  38 SE8       29.95F
BLAIR          SUNNY     83  55  37 SE7       29.96F
COLUMBUS *     MOSUNNY   82  57  42 SE9       29.96F
FREMONT        SUNNY     83  55  37 E8        29.96F
TEKAMAH        PTSUNNY   86  56  35 SE10      29.94F
WAYNE          MOSUNNY   80  61  51 E10       29.97S
$$

NEZ050>053-065>068-078-088>093-292300-
SOUTHEAST NEBRASKA

CITY           SKY/WX    TMP DP  RH WIND       PRES   REMARKS
LINCOLN        SUNNY     83  57  41 SE12      29.95F
OMAHA EPPLEY   MOSUNNY   83  56  39 SE7       29.96F
BEATRICE       MOSUNNY   81  55  41 SE8G17    29.95F
FALLS CITY     SUNNY     84  54  35 SW6       29.95F
NEBRASKA CITY  SUNNY     82  46  29 S7        29.96F
PLATTSMOUTH    SUNNY     82  54  38 SE3       29.97F
$$

NEZ044-045-051>053-067-292300-
OMAHA AREA

CITY           SKY/WX    TMP DP  RH WIND       PRES   REMARKS
OMAHA EPPLEY   MOSUNNY   83  56  39 SE7       29.96F
BLAIR          SUNNY     83  55  37 SE7       29.96F
FREMONT        SUNNY     83  55  37 E8        29.96F
MILLARD        SUNNY     83  60  46 SE8       29.95F
OFFUTT AFB     MOSUNNY   83  61  46 E6        29.95F
PLATTSMOUTH    SUNNY     82  54  38 SE3       29.97F
WAHOO          FAIR      81  55  40 E7        29.95F
$$



USA.gov is the U.S. government's official web portal to all federal, state and local government web resources and services.